Terminal Aerodrome Forecast
Issued by NWS Greer, SC

Home | Current Version | Previous Version | Text Only | Print | Product List | Glossary On
Versions: 1 2 3 4 5 6 7 8 9 10 11 12 13 14 15 16 17 18 19 20 21 22 23 24 25 26 27 28 29 30 31 32 33
000
FTUS42 KGSP 140324 AAA
TAFAVL
TAF AMD
KAVL 140324Z 1403/1424 34010KT P6SM FEW250
     FM140800 35005KT P6SM BKN110
     FM141100 11003KT P6SM BKN070
     FM141700 16007KT P6SM OVC060=

USA.gov is the U.S. government's official web portal to all federal, state and local government web resources and services.